Weather Roundup
Issued by NWS Chicago, IL

Home | Current Version | Previous Version | Text Only | Print | Product List | Glossary Off
Versions: 1 2 3 4 5 6 7 8 9 10 11 12 13 14 15 16 17 18 19 20 21 22 23 24 25 26 27 28 29 30 31 32 33 34 35 36 37 38 39 40 41 42 43 44 45 46 47 48 49 50

000
NZUS59 KLOT 301003
HRRLOT

CHICAGO AREA WEATHER ROUNDUP
NATIONAL WEATHER SERVICE CHICAGO/ROMEOVILLE IL
500 AM CDT THU MAR 30 2017

NOTE: "FAIR" INDICATES FEW OR NO CLOUDS BELOW 12,000 FEET WITH NO
SIGNIFICANT WEATHER AND/OR OBSTRUCTIONS TO VISIBILITY.

* THESE STATIONS ARE NOT UNDER NWS QUALITY CONTROL. THEY ALSO MAY NOT
  REPORT WEATHER SUCH AS PRECIPITATION OR FOG.

ILZ005-006-012>014-019>023-301100-
NORTHEAST ILLINOIS

CITY           SKY/WX    TMP DP  RH WIND       PRES   REMARKS
OHARE          RAIN      42  39  89 E13       29.87S FOG
MIDWAY         TSTM      43  41  93 E24G36    29.87R FOG
AURORA         RAIN      43  41  93 E20G28    29.82F FOG
LANSING*       LGT RAIN  42  41  97 E17G26    29.84F
JOLIET*        LGT RAIN  45  42  91 E18G24    29.83F
WAUKEGAN       LGT RAIN  38  38 100 E16       29.91F FOG
DUPAGE AIRPORT HVY RAIN  42  42 100 E14       29.85S FOG
WHEELING       RAIN      39  39 100 E10       29.89F FOG
KANKAKEE*      TSTM      44  42  92 E12       29.82S
MORRIS*        CLOUDY    45  41  86 E16G24    29.81S
NORTHERLY ISL    N/A     40  39  97 E5          N/A
$$

WIZ051-052-058>065-066-070>072-301100-
SOUTHEAST WISCONSIN

CITY           SKY/WX    TMP DP  RH WIND       PRES   REMARKS
MILWAUKEE      RAIN      37  34  89 NE15      29.96F FOG
KENOSHA*       LGT RAIN  38  36  92 E20G30    29.91F FOG
RACINE*        RAIN      38  35  89 E14G22    29.96F FOG
WEST BEND      RAIN      34  34 100 E13       29.97F WCI  25
$$

INZ001>003-010>013-019-020-301100-
NORTHWEST INDIANA

CITY           SKY/WX    TMP DP  RH WIND       PRES   REMARKS
GARY*          LGT RAIN  43  41  93 E17G29    29.85F
MICHIGAN CITY* NOT AVBL
RENSSELAER*    NOT AVBL
VALPARAISO     CLOUDY    43  40  89 E26       29.86F
$$

LMZ740>746-301100-
SOUTHERN LAKE MICHIGAN

STATION/POSITION TIME  SKY/WX   TEMP WIND        PRES    VSBY
                                AIR  DIR/SP/G
                 (UTC)          (F)  (DEG/KT/KT) (MB)    (MI)
HARRISON CRIB    0940            40   90/ 19/ 21   N/A
BURNHAM HARBOR   1000            41   80/ 19       N/A
CALUMET HARBOR   0930            41   80/ 20/ 29 1010.9F
BURNS HARBOR     0940            42   90/ 14/ 21 1011.9F
MICHIGAN CITY    0940            41   70/ 20/ 22   N/A
$$

ABBREVIATIONS USED IN REMARKS
   TC - TEMPERATURE IN CELSIUS
  WCI - WIND CHILL INDEX
   HX - HEAT INDEX
  VSB - VISIBILITY
$$



USA.gov is the U.S. government's official web portal to all federal, state and local government web resources and services.